Regional Weather Roundup
Issued by NWS Lake Charles, LA

Home | Current Version | Previous Version | Text Only | Print | Product List | Glossary On
Versions: 1 2 3 4 5 6 7 8 9 10 11 12 13 14 15 16 17 18 19 20 21 22 23 24 25 26 27 28 29 30 31 32 33 34 35 36 37 38 39 40 41 42 43 44 45 46 47 48 49 50
000
ASUS44 KLCH 130210
RWRLCH
RWRLCH
REGIONAL WEATHER ROUNDUP
NATIONAL WEATHER SERVICE LAKE CHARLES LA
900 PM CDT SAT JUL 12 2014

Note: "fair" indicates few or no clouds below 12,000 feet with no
significant weather and/or obstructions to visibility.


ACROSS SOUTHEAST TEXAS

CITY           SKY/WX    TMP DP  RH WIND       PRES   REMARKS
BEAUMONT       LGT RAIN  78  72  81 E7        30.06S
BEAUMONT CITY    N/A     79  69  71 CALM      30.07F
ORANGE         DRIZZLE   73  73 100 CALM      30.08F
JASPER         CLOUDY    78  70  76 CALM      30.11F
$$

ACROSS CENTRAL LOUISIANA

CITY           SKY/WX    TMP DP  RH WIND       PRES   REMARKS
LEESVILLE      PTCLDY    79  72  79 CALM      30.08F
FULLERTON        N/A     80  73  79 CALM      30.06F
ALEXANDRIA INT PTCLDY    79  74  84 SW3       30.07R
ESLER FIELD    PTCLDY    80  74  81 CALM      30.08S
DERIDDER         N/A     78  73  84 CALM      30.10S
OAKDALE        PTCLDY    76  72  88 CALM      30.09S
OPELOUSAS        N/A     78  74  88 W3        30.07S
$$

ACROSS SOUTHWEST AND SOUTH CENTRAL LOUISIANA

CITY           SKY/WX    TMP DP  RH WIND       PRES   REMARKS
SULPHUR        CLOUDY    75  74  95 CALM      30.08S
LAKE CHARLES   CLOUDY    75  73  93 NW5       30.07S
CHENNAULT INT  CLEAR     75  72  88 CALM      30.09S
CAMERON PHI    CLEAR     79  75  89 NW3       30.07F
DEQUINCY         N/A     74  72  96 CALM      30.08S
JENNINGS         N/A     76  74  93 NW5       30.08S
LAFAYETTE      PTCLDY    82  72  71 W3        30.07S
NEW IBERIA     PTCLDY    79  73  82 CALM      30.08R
ABBEVILLE        N/A     77  74  90 CALM      30.08R
PATTERSON      PTCLDY    82  77  83 W6        30.12R
SALT POINT       N/A     86  77  74 CALM      30.07R
$$

SELECTED SITES ACROSS THE REGION

CITY           SKY/WX    TMP DP  RH WIND       PRES   REMARKS
HOUSTON BUSH   MOCLDY    86  71  60 SE14      30.06R
HOUSTON HOBBY  MOCLDY    85  71  63 S7        30.06S
GALVESTON      MOCLDY    84  75  74 S6        30.08R
COLLEGE STAT   CLEAR     87  65  47 S6        30.06R
CONROE         PTCLDY    83  76  79 E3        30.07R
HUNTSVILLE     CLEAR     88  68  51 CALM      30.07R
LUFKIN         MOCLDY    88  74  63 CALM      30.07R
SHREVEPORT     MOCLDY    81  72  74 CALM      30.06S
MONROE         CLEAR     84  75  74 E3        30.08R
NATCHEZ MS     CLEAR     79  73  83 CALM      30.09R
BATON ROUGE    MOCLDY    84  75  74 N3        30.07R THUNDER
N.O. INTL ARPT MOCLDY    83  73  72 CALM      30.07R
SLIDELL        PTCLDY    76  72  87 CALM      30.06F
$$

MARINE REPORTS

STATION/POSITION TIME  TEMP    WIND        PRES    VSBY  WAVE
                       AIR SEA DIR/SP/G                  HT/PER
                 (UTC) (F)     (DEG/KT/KT) (MB)    (MI)  (FT/S)
BUOY 30 S HIGH I NOT AVBL
SEA RIM ST PARK  0200   80      60/  4/  5 1018.6F
PORT ARTHUR      0200      89   10/  5/  8 1018.3R
SABINE PASS N    0200   80 88   80/  6/  8 1018.2S
TEXAS POINT      0200   81 88   40/  6/  7 1018.3F
CALCASIEU PASS   0200   79 86  340/  4/  5 1019.3R
LK CHARLES BEACH 0200   77 89              1019.3R
MARSH ISLAND     0100   86     280/  3/  4   N/A
FRESH WATER LOCK 0200   78 89  300/  1/  2 1018.3R
AMERADA PASS     0200   84 89  210/  1/  2 1018.1S
$$


USA.gov is the U.S. government's official web portal to all federal, state and local government web resources and services.